Time,TemperatureF,DewpointF,PressureIn,WindDirection,WindDirectionDegrees,WindSpeedMPH,WindSpeedGustMPH,Humidity,HourlyPrecipIn,Conditions,Clouds,dailyrainin,SoftwareType,DateUTC
2013-03-05 00:02:00,35.0,34.0,30.19,SSW,209,1.0,1.0,95,-99.99,,,-99.99,,2013-03-05 05:02:00,
2013-03-05 00:12:00,35.0,34.0,30.19,NNE,20,1.0,1.0,95,-99.99,,,-99.99,,2013-03-05 05:12:00,
2013-03-05 00:22:00,35.0,34.0,30.19,NNE,20,1.0,1.0,95,-99.99,,,-99.99,,2013-03-05 05:22:00,
2013-03-05 00:32:00,35.0,33.0,30.20,SW,217,1.0,1.0,95,-99.99,,,-99.99,,2013-03-05 05:32:00,
2013-03-05 00:42:00,35.0,33.0,30.20,SW,217,1.0,1.0,95,-99.99,,,-99.99,,2013-03-05 05:42:00,
2013-03-05 00:52:00,35.0,33.0,30.19,SE,139,1.0,2.0,95,-99.99,,,-99.99,,2013-03-05 05:52:00,
2013-03-05 01:01:00,35.0,33.0,30.19,SE,139,1.0,2.0,95,-99.99,,,-99.99,,2013-03-05 06:01:00,
2013-03-05 01:11:00,34.0,33.0,30.19,SSW,213,0.0,1.0,95,-99.99,,,-99.99,,2013-03-05 06:11:00,
2013-03-05 01:22:00,34.0,33.0,30.19,SSW,213,0.0,1.0,95,-99.99,,,-99.99,,2013-03-05 06:22:00,
2013-03-05 01:32:00,33.0,32.0,30.18,WSW,251,1.0,1.0,96,-99.99,,,-99.99,,2013-03-05 06:32:00,
2013-03-05 01:42:00,33.0,32.0,30.18,WSW,251,1.0,1.0,96,-99.99,,,-99.99,,2013-03-05 06:42:00,
2013-03-05 01:52:00,34.0,33.0,30.18,SE,139,1.0,2.0,96,-99.99,,,-99.99,,2013-03-05 06:52:00,
2013-03-05 02:01:00,34.0,33.0,30.18,SE,139,1.0,2.0,96,-99.99,,,-99.99,,2013-03-05 07:01:00,
2013-03-05 02:11:00,33.0,32.0,30.17,East,90,1.0,1.0,96,-99.99,,,-99.99,,2013-03-05 07:11:00,
2013-03-05 02:22:00,33.0,32.0,30.17,East,90,1.0,1.0,96,-99.99,,,-99.99,,2013-03-05 07:22:00,
2013-03-05 02:32:00,33.0,32.0,30.17,SSE,154,1.0,1.0,96,-99.99,,,-99.99,,2013-03-05 07:32:00,
2013-03-05 02:42:00,33.0,32.0,30.17,SSE,154,1.0,1.0,96,-99.99,,,-99.99,,2013-03-05 07:42:00,
2013-03-05 02:52:00,33.0,32.0,30.17,SSE,152,1.0,1.0,96,-99.99,,,-99.99,,2013-03-05 07:52:00,
2013-03-05 03:02:00,33.0,32.0,30.17,SSE,152,1.0,1.0,96,-99.99,,,-99.99,,2013-03-05 08:02:00,
2013-03-05 03:11:00,32.0,31.0,30.16,SSE,157,1.0,1.0,96,-99.99,,,-99.99,,2013-03-05 08:11:00,
2013-03-05 03:21:00,32.0,31.0,30.16,SSE,157,1.0,1.0,96,-99.99,,,-99.99,,2013-03-05 08:21:00,
2013-03-05 03:31:00,33.0,32.0,30.16,SE,135,1.0,2.0,96,-99.99,,,-99.99,,2013-03-05 08:31:00,
2013-03-05 03:42:00,33.0,32.0,30.16,SE,135,1.0,2.0,96,-99.99,,,-99.99,,2013-03-05 08:42:00,
2013-03-05 03:52:00,33.0,32.0,30.16,SSW,192,1.0,2.0,96,-99.99,,,-99.99,,2013-03-05 08:52:00,
2013-03-05 04:01:00,33.0,32.0,30.16,SSW,192,1.0,2.0,96,-99.99,,,-99.99,,2013-03-05 09:01:00,
2013-03-05 04:11:00,33.0,32.0,30.16,NNE,28,1.0,2.0,96,-99.99,,,-99.99,,2013-03-05 09:11:00,
2013-03-05 04:21:00,33.0,32.0,30.16,NNE,28,1.0,2.0,96,-99.99,,,-99.99,,2013-03-05 09:21:00,
2013-03-05 04:32:00,32.0,32.0,30.15,NNE,20,1.0,2.0,96,-99.99,,,-99.99,,2013-03-05 09:32:00,
2013-03-05 04:43:00,32.0,32.0,30.15,NNE,20,1.0,2.0,96,-99.99,,,-99.99,,2013-03-05 09:43:00,
2013-03-05 04:52:00,32.0,31.0,30.15,ESE,119,1.0,2.0,96,-99.99,,,-99.99,,2013-03-05 09:52:00,
2013-03-05 05:01:00,32.0,31.0,30.15,ESE,119,1.0,2.0,96,-99.99,,,-99.99,,2013-03-05 10:01:00,
2013-03-05 05:11:00,33.0,32.0,30.16,NNE,29,1.0,2.0,96,-99.99,,,-99.99,,2013-03-05 10:11:00,
2013-03-05 05:22:00,33.0,32.0,30.16,NNE,29,1.0,2.0,96,-99.99,,,-99.99,,2013-03-05 10:22:00,
2013-03-05 05:32:00,33.0,32.0,30.16,SSE,165,1.0,2.0,96,-99.99,,,-99.99,,2013-03-05 10:32:00,
2013-03-05 05:42:00,33.0,32.0,30.16,SSE,165,1.0,2.0,96,-99.99,,,-99.99,,2013-03-05 10:42:00,
2013-03-05 05:52:00,33.0,32.0,30.16,SW,218,1.0,1.0,97,-99.99,,,-99.99,,2013-03-05 10:52:00,
2013-03-05 06:02:00,33.0,32.0,30.16,SW,218,1.0,1.0,97,-99.99,,,-99.99,,2013-03-05 11:02:00,
2013-03-05 06:11:00,33.0,32.0,30.17,WNW,298,1.0,1.0,97,-99.99,,,-99.99,,2013-03-05 11:11:00,
2013-03-05 06:22:00,33.0,32.0,30.17,WNW,298,1.0,1.0,97,-99.99,,,-99.99,,2013-03-05 11:22:00,
2013-03-05 06:32:00,33.0,32.0,30.19,SE,131,1.0,1.0,97,-99.99,,,-99.99,,2013-03-05 11:32:00,
2013-03-05 06:42:00,33.0,32.0,30.19,SE,131,1.0,1.0,97,-99.99,,,-99.99,,2013-03-05 11:42:00,
2013-03-05 06:52:00,32.0,32.0,30.19,ESE,106,1.0,1.0,97,-99.99,,,-99.99,,2013-03-05 11:52:00,
2013-03-05 07:02:00,32.0,32.0,30.19,ESE,106,1.0,1.0,97,-99.99,,,-99.99,,2013-03-05 12:02:00,
2013-03-05 07:12:00,33.0,32.0,30.19,East,98,1.0,1.0,97,-99.99,,,-99.99,,2013-03-05 12:12:00,
2013-03-05 07:22:00,33.0,32.0,30.19,East,98,1.0,1.0,97,-99.99,,,-99.99,,2013-03-05 12:22:00,
2013-03-05 07:32:00,33.0,32.0,30.19,East,98,1.0,1.0,97,-99.99,,,-99.99,,2013-03-05 12:32:00,
2013-03-05 07:42:00,35.0,34.0,30.18,WSW,249,1.0,1.0,97,-99.99,,,-99.99,,2013-03-05 12:42:00,
2013-03-05 07:53:00,37.0,37.0,30.19,South,169,0.0,1.0,97,-99.99,,,-99.99,,2013-03-05 12:53:00,
2013-03-05 08:02:00,37.0,37.0,30.19,South,169,0.0,1.0,97,-99.99,,,-99.99,,2013-03-05 13:02:00,
2013-03-05 08:12:00,41.0,40.0,30.19,SSE,159,1.0,1.0,97,-99.99,,,-99.99,,2013-03-05 13:12:00,
2013-03-05 08:22:00,41.0,40.0,30.19,SSE,159,1.0,1.0,97,-99.99,,,-99.99,,2013-03-05 13:22:00,
2013-03-05 08:32:00,41.0,40.0,30.19,SSE,159,1.0,1.0,97,-99.99,,,-99.99,,2013-03-05 13:32:00,
2013-03-05 08:42:00,49.0,46.0,30.19,SE,140,2.0,5.0,90,-99.99,,,-99.99,,2013-03-05 13:42:00,
2013-03-05 08:52:00,49.0,46.0,30.19,SE,140,2.0,5.0,90,-99.99,,,-99.99,,2013-03-05 13:52:00,
2013-03-05 09:02:00,51.0,45.0,30.19,SE,134,2.0,5.0,81,-99.99,,,-99.99,,2013-03-05 14:02:00,
2013-03-05 09:11:00,51.0,45.0,30.19,SE,134,2.0,5.0,81,-99.99,,,-99.99,,2013-03-05 14:11:00,
2013-03-05 09:22:00,56.0,48.0,30.19,SE,128,2.0,4.0,73,-99.99,,,-99.99,,2013-03-05 14:22:00,
2013-03-05 09:32:00,56.0,48.0,30.19,SE,128,2.0,4.0,73,-99.99,,,-99.99,,2013-03-05 14:32:00,
2013-03-05 09:42:00,63.0,49.0,30.19,SSE,151,4.0,8.0,59,-99.99,,,-99.99,,2013-03-05 14:42:00,
2013-03-05 09:52:00,63.0,49.0,30.19,SSE,151,4.0,8.0,59,-99.99,,,-99.99,,2013-03-05 14:52:00,
2013-03-05 10:02:00,65.0,49.0,30.19,SSE,148,6.0,10.0,55,-99.99,,,-99.99,,2013-03-05 15:02:00,
2013-03-05 10:11:00,65.0,49.0,30.19,SSE,148,6.0,10.0,55,-99.99,,,-99.99,,2013-03-05 15:11:00,
2013-03-05 10:22:00,68.0,52.0,30.18,SE,146,7.0,14.0,55,-99.99,,,-99.99,,2013-03-05 15:22:00,
2013-03-05 10:32:00,68.0,52.0,30.18,SE,146,7.0,14.0,55,-99.99,,,-99.99,,2013-03-05 15:32:00,
2013-03-05 10:42:00,69.0,53.0,30.18,South,172,8.0,14.0,55,-99.99,,,-99.99,,2013-03-05 15:42:00,
2013-03-05 10:52:00,69.0,53.0,30.18,South,172,8.0,14.0,55,-99.99,,,-99.99,,2013-03-05 15:52:00,
2013-03-05 11:02:00,70.0,53.0,30.18,SSE,163,9.0,15.0,55,-99.99,,,-99.99,,2013-03-05 16:02:00,
2013-03-05 11:11:00,70.0,53.0,30.18,SSE,163,9.0,15.0,55,-99.99,,,-99.99,,2013-03-05 16:11:00,
2013-03-05 11:22:00,72.0,54.0,30.18,SSE,167,8.0,16.0,54,-99.99,,,-99.99,,2013-03-05 16:22:00,
2013-03-05 11:32:00,72.0,54.0,30.18,SSE,167,8.0,16.0,54,-99.99,,,-99.99,,2013-03-05 16:32:00,
2013-03-05 11:42:00,72.0,54.0,30.18,SSW,209,7.0,13.0,52,-99.99,,,-99.99,,2013-03-05 16:42:00,
2013-03-05 11:52:00,72.0,54.0,30.18,SSW,209,7.0,13.0,52,-99.99,,,-99.99,,2013-03-05 16:52:00,
2013-03-05 12:01:00,73.0,53.0,30.18,SSW,200,7.0,13.0,50,-99.99,,,-99.99,,2013-03-05 17:01:00,
2013-03-05 12:11:00,73.0,53.0,30.18,SSW,200,7.0,13.0,50,-99.99,,,-99.99,,2013-03-05 17:11:00,
2013-03-05 12:22:00,74.0,52.0,30.17,SW,219,6.0,12.0,46,-99.99,,,-99.99,,2013-03-05 17:22:00,
2013-03-05 12:32:00,74.0,52.0,30.17,SW,219,6.0,12.0,46,-99.99,,,-99.99,,2013-03-05 17:32:00,
2013-03-05 12:42:00,75.0,53.0,30.16,South,181,7.0,34.0,45,-99.99,,,-99.99,,2013-03-05 17:42:00,
2013-03-05 12:53:00,75.0,53.0,30.16,South,181,7.0,34.0,45,-99.99,,,-99.99,,2013-03-05 17:53:00,
2013-03-05 13:02:00,75.0,53.0,30.16,SW,227,7.0,14.0,46,-99.99,,,-99.99,,2013-03-05 18:02:00,
2013-03-05 13:11:00,75.0,53.0,30.16,SW,227,7.0,14.0,46,-99.99,,,-99.99,,2013-03-05 18:11:00,
2013-03-05 13:22:00,76.0,53.0,30.15,SW,228,7.0,12.0,44,-99.99,,,-99.99,,2013-03-05 18:22:00,
2013-03-05 13:32:00,76.0,53.0,30.15,SW,228,7.0,12.0,44,-99.99,,,-99.99,,2013-03-05 18:32:00,
2013-03-05 13:42:00,75.0,52.0,30.14,WSW,237,7.0,13.0,45,-99.99,,,-99.99,,2013-03-05 18:42:00,
2013-03-05 13:53:00,75.0,52.0,30.14,WSW,237,7.0,13.0,45,-99.99,,,-99.99,,2013-03-05 18:53:00,
2013-03-05 14:01:00,76.0,52.0,30.13,SSW,211,7.0,13.0,44,-99.99,,,-99.99,,2013-03-05 19:01:00,
2013-03-05 14:11:00,76.0,52.0,30.13,SSW,211,7.0,13.0,44,-99.99,,,-99.99,,2013-03-05 19:11:00,
2013-03-05 14:22:00,76.0,51.0,30.12,SSW,200,8.0,15.0,42,-99.99,,,-99.99,,2013-03-05 19:22:00,
2013-03-05 14:32:00,76.0,51.0,30.12,SSW,200,8.0,15.0,42,-99.99,,,-99.99,,2013-03-05 19:32:00,
2013-03-05 14:42:00,76.0,52.0,30.12,SSW,213,8.0,16.0,42,-99.99,,,-99.99,,2013-03-05 19:42:00,
2013-03-05 14:52:00,76.0,52.0,30.12,SSW,213,8.0,16.0,42,-99.99,,,-99.99,,2013-03-05 19:52:00,
2013-03-05 15:01:00,75.0,51.0,30.12,SW,226,8.0,16.0,43,-99.99,,,-99.99,,2013-03-05 20:01:00,
2013-03-05 15:11:00,75.0,51.0,30.12,SW,226,8.0,16.0,43,-99.99,,,-99.99,,2013-03-05 20:11:00,
2013-03-05 15:22:00,75.0,50.0,30.11,SW,219,8.0,14.0,41,-99.99,,,-99.99,,2013-03-05 20:22:00,
2013-03-05 15:32:00,75.0,50.0,30.11,SW,219,8.0,14.0,41,-99.99,,,-99.99,,2013-03-05 20:32:00,
2013-03-05 15:42:00,76.0,49.0,30.11,SW,229,7.0,14.0,38,-99.99,,,-99.99,,2013-03-05 20:42:00,
2013-03-05 15:52:00,76.0,49.0,30.11,SW,229,7.0,14.0,38,-99.99,,,-99.99,,2013-03-05 20:52:00,
2013-03-05 16:02:00,75.0,51.0,30.11,SSW,211,7.0,14.0,41,-99.99,,,-99.99,,2013-03-05 21:02:00,
2013-03-05 16:11:00,75.0,51.0,30.11,SSW,211,7.0,14.0,41,-99.99,,,-99.99,,2013-03-05 21:11:00,
2013-03-05 16:22:00,75.0,51.0,30.11,SW,226,7.0,15.0,44,-99.99,,,-99.99,,2013-03-05 21:22:00,
2013-03-05 16:32:00,75.0,51.0,30.11,SW,226,7.0,15.0,44,-99.99,,,-99.99,,2013-03-05 21:32:00,
2013-03-05 16:42:00,75.0,52.0,30.11,SW,232,7.0,15.0,45,-99.99,,,-99.99,,2013-03-05 21:42:00,
2013-03-05 16:52:00,75.0,52.0,30.11,SW,232,7.0,15.0,45,-99.99,,,-99.99,,2013-03-05 21:52:00,
2013-03-05 17:01:00,74.0,52.0,30.11,WSW,254,8.0,12.0,45,-99.99,,,-99.99,,2013-03-05 22:01:00,
2013-03-05 17:11:00,74.0,52.0,30.11,WSW,254,8.0,12.0,45,-99.99,,,-99.99,,2013-03-05 22:11:00,
2013-03-05 17:22:00,74.0,53.0,30.11,WSW,245,5.0,12.0,47,-99.99,,,-99.99,,2013-03-05 22:22:00,
2013-03-05 17:32:00,74.0,53.0,30.11,WSW,245,5.0,12.0,47,-99.99,,,-99.99,,2013-03-05 22:32:00,
2013-03-05 17:42:00,73.0,52.0,30.11,WSW,254,6.0,12.0,48,-99.99,,,-99.99,,2013-03-05 22:42:00,
2013-03-05 17:52:00,73.0,52.0,30.11,WSW,254,6.0,12.0,48,-99.99,,,-99.99,,2013-03-05 22:52:00,
2013-03-05 18:01:00,72.0,53.0,30.11,WSW,256,6.0,13.0,51,-99.99,,,-99.99,,2013-03-05 23:01:00,
2013-03-05 18:11:00,72.0,53.0,30.11,WSW,256,6.0,13.0,51,-99.99,,,-99.99,,2013-03-05 23:11:00,
2013-03-05 18:22:00,70.0,53.0,30.12,West,270,5.0,9.0,54,-99.99,,,-99.99,,2013-03-05 23:22:00,
2013-03-05 18:32:00,70.0,53.0,30.12,West,270,5.0,9.0,54,-99.99,,,-99.99,,2013-03-05 23:32:00,
2013-03-05 18:42:00,68.0,54.0,30.12,West,262,4.0,10.0,59,-99.99,,,-99.99,,2013-03-05 23:42:00,
2013-03-05 18:53:00,68.0,54.0,30.12,West,262,4.0,10.0,59,-99.99,,,-99.99,,2013-03-05 23:53:00,
2013-03-05 19:01:00,66.0,54.0,30.12,West,277,4.0,7.0,64,-99.99,,,-99.99,,2013-03-06 00:01:00,
2013-03-05 19:11:00,66.0,54.0,30.12,West,277,4.0,7.0,64,-99.99,,,-99.99,,2013-03-06 00:11:00,
2013-03-05 19:22:00,62.0,53.0,30.13,West,280,3.0,5.0,73,-99.99,,,-99.99,,2013-03-06 00:22:00,
2013-03-05 19:32:00,62.0,53.0,30.13,West,280,3.0,5.0,73,-99.99,,,-99.99,,2013-03-06 00:32:00,
2013-03-05 19:42:00,58.0,51.0,30.13,West,271,2.0,3.0,79,-99.99,,,-99.99,,2013-03-06 00:42:00,
2013-03-05 19:52:00,58.0,51.0,30.13,West,271,2.0,3.0,79,-99.99,,,-99.99,,2013-03-06 00:52:00,
2013-03-05 20:02:00,54.0,50.0,30.13,SW,234,2.0,3.0,84,-99.99,,,-99.99,,2013-03-06 01:02:00,
2013-03-05 20:11:00,54.0,50.0,30.13,SW,234,2.0,3.0,84,-99.99,,,-99.99,,2013-03-06 01:11:00,
2013-03-05 20:22:00,51.0,48.0,30.13,West,271,1.0,1.0,89,-99.99,,,-99.99,,2013-03-06 01:22:00,
2013-03-05 20:32:00,51.0,48.0,30.13,West,271,1.0,1.0,89,-99.99,,,-99.99,,2013-03-06 01:32:00,
2013-03-05 20:42:00,50.0,47.0,30.13,SSE,151,0.0,1.0,90,-99.99,,,-99.99,,2013-03-06 01:42:00,
2013-03-05 20:52:00,50.0,47.0,30.13,SSE,151,0.0,1.0,90,-99.99,,,-99.99,,2013-03-06 01:52:00,
2013-03-05 21:01:00,48.0,46.0,30.13,East,84,1.0,2.0,91,-99.99,,,-99.99,,2013-03-06 02:01:00,
2013-03-05 21:11:00,48.0,46.0,30.13,East,84,1.0,2.0,91,-99.99,,,-99.99,,2013-03-06 02:11:00,
2013-03-05 21:22:00,48.0,46.0,30.14,WNW,290,2.0,2.0,93,-99.99,,,-99.99,,2013-03-06 02:22:00,
2013-03-05 21:32:00,48.0,46.0,30.14,WNW,290,2.0,2.0,93,-99.99,,,-99.99,,2013-03-06 02:32:00,
2013-03-05 21:42:00,47.0,45.0,30.13,SSW,193,1.0,2.0,94,-99.99,,,-99.99,,2013-03-06 02:42:00,
2013-03-05 21:52:00,47.0,45.0,30.13,SSW,193,1.0,2.0,94,-99.99,,,-99.99,,2013-03-06 02:52:00,
2013-03-05 22:02:00,46.0,45.0,30.13,ESE,120,1.0,1.0,94,-99.99,,,-99.99,,2013-03-06 03:02:00,
2013-03-05 22:11:00,46.0,45.0,30.13,ESE,120,1.0,1.0,94,-99.99,,,-99.99,,2013-03-06 03:11:00,
2013-03-05 22:22:00,45.0,43.0,30.13,SE,145,2.0,3.0,94,-99.99,,,-99.99,,2013-03-06 03:22:00,
2013-03-05 22:32:00,45.0,43.0,30.13,SE,145,2.0,3.0,94,-99.99,,,-99.99,,2013-03-06 03:32:00,
2013-03-05 22:42:00,44.0,43.0,30.13,SE,141,2.0,3.0,94,-99.99,,,-99.99,,2013-03-06 03:42:00,
2013-03-05 22:53:00,44.0,43.0,30.13,SE,141,2.0,3.0,94,-99.99,,,-99.99,,2013-03-06 03:53:00,
2013-03-05 23:02:00,44.0,43.0,30.13,ESE,115,1.0,1.0,95,-99.99,,,-99.99,,2013-03-06 04:02:00,
2013-03-05 23:11:00,44.0,43.0,30.13,ESE,115,1.0,1.0,95,-99.99,,,-99.99,,2013-03-06 04:11:00,
2013-03-05 23:22:00,44.0,42.0,30.13,ESE,121,1.0,1.0,95,-99.99,,,-99.99,,2013-03-06 04:22:00,
2013-03-05 23:32:00,44.0,42.0,30.13,ESE,121,1.0,1.0,95,-99.99,,,-99.99,,2013-03-06 04:32:00,
2013-03-05 23:42:00,44.0,42.0,30.13,NW,313,1.0,1.0,95,-99.99,,,-99.99,,2013-03-06 04:42:00,
2013-03-05 23:52:00,44.0,42.0,30.13,NW,313,1.0,1.0,95,-99.99,,,-99.99,,2013-03-06 04:52:00,